OPS 4682 DEB, 38389

Orbit data source: Space-Track

OPS 4682 DEB, 38389 is space debris in LEO originally from a launch on Sat, 03 Apr 1965 UTC launched from the Air Force Western Test Range (AFWTR). Debris objects in space refer to the collection of defunct objects orbiting the Earth. Examples of debris include non-operational satellites, rocket bodies, and fragments generated from explosions, collisions, or faulty payload assembly.

Loading next visibility...
Identifier
38389, 1965-027CS
Orbit
LEO
Country
Flag of USUS
Related business
Manufacturer
Unknown
Mission
Spacecraft
Bus & Motor
Unknown
Mass
Unknown
Launch date (UTC)
1965-04-03 (61 years ago)
Launch vehicle
Unknown
Launch site
Air Force Western Test Range (AFWTR)
Object type
Payload
Rocket body
Debris
Shape & HBR
Unknown shape, 0.1 m
Radar Cross Section
Small (<0.1 m²)

Expand to show TLE details & history
Last TLE update: 14 hours ago

TLE from 14 hours ago
0 OPS 4682 DEB
1 38389U 65027CS  26120.04934528 -.00000199  00000-0 -68640-3 0  9995
2 38389  90.3207  40.3039 0009554  37.5225 322.6562 12.99982030 75551
Epoch: 2026-04-30T01:11Z
TLE epoch observation values (Epoch: 2026-04-30T01:11:03.432Z)
Latitude
-0.00003°
Longitude
164.53807°
Altitude
1,259.239 km
Speed
7.228 km/s
True Right ascension
02h 41m 12s
True Declination
0° 00' 00"
Sunlit
Object was in daylight at epoch
Visualization orbit readout
Latitude
Unknown
Longitude
Unknown
Altitude
Unknown
Speed
Unknown
Apparent Right ascension
Unknown
Apparent Declination
Unknown
Sunlit
N/A
Visualization observer readout
Local Sidereal Time
22:58:33
Azimuth
Unknown
Elevation
Unknown
Doppler factor
Unknown
Orbital elements
Apogee altitude
1,266.581 km
Perigee altitude
1,251.987 km
Semi-major axis
7,637.421 km
Eccentricity
0.00096
Inclination
90.3207°
RAAN
40.3039°
Arg. of periapsis
37.5225°
True anomaly
322.58973°
Mean anomaly
322.6562°
Eccentric anomaly
322.62297°
Mean motion
3.25179 °/min
Orbital period
110.71 mins
BSTAR
-0.0006864
Loading maneuver chart data...
Computing Atmospheric mass density...
Loading historical data...
Loading historical data...
Loading historical data...
Loading historical data...
Loading historical data...
Loading historical data...
Loading historical data...

Documentation

Showing up to 5 results
|